Dickinson, ND

1:19 PM MST on February 17, 2018 (GMT -0700)
Dickinson Municipal

Weather History for KDIK - December, 2012

Change the Weather History Date:

Wednesday, December 12, 2012

  Actual Average Record
Temperature  
Mean Temperature 27 °F 18 °F  
Max Temperature 34 °F 29 °F 61 °F (2014)
Min Temperature 20 °F 8 °F -24 °F (1922)
Degree Days  
Heating Degree Days 38 47  
Month to date heating degree days 466 540  
Since 1 July heating degree days 2390 2617  
Cooling Degree Days 0 0  
Month to date cooling degree days 0 0  
Year to date cooling degree days 591 419  
Moisture  
Dew Point 21 °F    
Average Humidity 83    
Maximum Humidity 96    
Minimum Humidity 69    
Precipitation  
Precipitation 0.15 in 0.01 in 0.31 in (1968)
Month to date precipitation 0.19 0.09  
Year to date precipitation 10.34 15.62  
Sea Level Pressure  
Sea Level Pressure 29.74 in    
Wind  
Wind Speed 6 mph (NE)    
Max Wind Speed 15 mph    
Max Gust Speed 18 mph    
Visibility 5 miles    
Events Snow    
T = Trace of Precipitation, MM = Missing Value Source: NWS Daily Summary

Daily Weather History Graph

Daily Weather History Graph

Search for Another Location

Airport or City:

Trip Planner

Search our weather history database for the weather conditions in past years. The results will help you decide how hot, cold, wet, or windy it might be!

Date:

Astronomy

Dec. 12, 2012 Rise Set
Actual Time 7:27 AM MST 4:02 PM MST
Civil Twilight 6:52 AM MST 4:38 PM MST
Nautical Twilight 6:13 AM MST 5:16 PM MST
Astronomical Twilight 5:36 AM MST 5:53 PM MST
Moon 6:32 AM MST (12/12) 3:43 PM MST (12/12)
Length of Visible Light 9h 45m
Length of Day
8h 35m
Waning Crescent, 0% of the Moon is Illuminated
Dec 12
Waning Crescent
Dec 13
New
Dec 19
First Quarter
Dec 28
Full
Jan 4
Last Quarter

Hourly Weather History & Observations

Time (MST) Temp. Windchill Dew Point Humidity Pressure Visibility Wind Dir Wind Speed Gust Speed Precip Events Conditions
12:56 AM 34.0 °F 25.0 °F 25.0 °F 70% 29.56 in 10.0 mi WSW 12.7 mph - N/A   Overcast
1:56 AM 32.0 °F 23.6 °F 25.0 °F 75% 29.57 in 10.0 mi WSW 10.4 mph - N/A   Mostly Cloudy
2:56 AM 33.1 °F 24.9 °F 27.0 °F 78% 29.59 in 10.0 mi West 10.4 mph - N/A   Overcast
3:56 AM 30.9 °F 23.5 °F 26.1 °F 82% 29.61 in 10.0 mi West 8.1 mph - N/A   Overcast
4:56 AM 28.9 °F 20.4 °F 23.0 °F 78% 29.62 in 10.0 mi West 9.2 mph - N/A   Clear
5:56 AM 26.1 °F 18.4 °F 21.0 °F 81% 29.64 in 10.0 mi West 6.9 mph - N/A   Mostly Cloudy
6:56 AM 25.0 °F 20.7 °F 21.0 °F 85% 29.65 in 10.0 mi NW 3.5 mph - N/A   Clear
7:56 AM 21.0 °F - 17.1 °F 85% 29.68 in 10.0 mi Calm Calm - N/A   Clear
8:56 AM 28.0 °F 21.7 °F 21.9 °F 78% 29.69 in 10.0 mi NNE 5.8 mph - N/A   Overcast
9:56 AM 28.9 °F - 21.9 °F 75% 29.72 in 10.0 mi Calm Calm - N/A   Overcast
10:56 AM 30.0 °F - 24.1 °F 79% 29.72 in 10.0 mi Calm Calm - N/A   Overcast
11:56 AM 33.1 °F - 26.1 °F 75% 29.70 in 10.0 mi Calm Calm - N/A   Overcast
12:56 PM 33.1 °F 26.1 °F 27.0 °F 78% 29.70 in 10.0 mi East 8.1 mph - N/A   Overcast
1:56 PM 32.0 °F 24.2 °F 27.0 °F 82% 29.71 in 10.0 mi East 9.2 mph - N/A   Overcast
2:56 PM 28.9 °F 21.1 °F 26.1 °F 89% 29.73 in 10.0 mi NE 8.1 mph - N/A   Overcast
3:37 PM 26.6 °F 17.5 °F 23.0 °F 86% 29.68 in 2.0 mi NE 9.2 mph - 0.00 in Snow Light Snow
3:47 PM 24.8 °F 16.1 °F 23.0 °F 93% 29.69 in 1.5 mi ENE 8.1 mph - 0.00 in Snow Light Snow
3:56 PM 25.0 °F 16.3 °F 23.0 °F 92% 29.78 in 1.0 mi ENE 8.1 mph - 0.00 in Snow Light Snow
4:56 PM 23.0 °F 12.4 °F 21.0 °F 92% 29.80 in 2.5 mi NE 10.4 mph - 0.02 in Snow Light Snow
5:04 PM 23.0 °F 12.4 °F 19.4 °F 86% 29.71 in 2.0 mi NE 10.4 mph - 0.00 in Snow Light Snow
5:22 PM 21.2 °F 9.5 °F 19.4 °F 93% 29.71 in 1.5 mi ENE 11.5 mph - 0.00 in Snow Light Snow
5:33 PM 21.2 °F 10.9 °F 19.4 °F 93% 29.72 in 1.5 mi NE 9.2 mph - 0.00 in Snow Light Snow
5:56 PM 21.0 °F 10.6 °F 19.0 °F 92% 29.83 in 1.0 mi ENE 9.2 mph - 0.01 in Snow Light Snow
6:03 PM 21.2 °F 11.7 °F 19.4 °F 93% 29.73 in 0.8 mi ENE 8.1 mph - 0.01 in Snow Light Snow
6:56 PM 21.0 °F 13.4 °F 18.0 °F 88% 29.85 in 0.8 mi East 5.8 mph - 0.05 in Snow Light Snow
7:03 PM 21.2 °F 14.9 °F 17.6 °F 86% 29.75 in 1.0 mi ENE 4.6 mph - 0.01 in Snow Light Snow
7:16 PM 21.2 °F 12.6 °F 17.6 °F 86% 29.76 in 1.2 mi East 6.9 mph - 0.01 in Snow Light Snow
7:56 PM 21.0 °F 13.4 °F 18.0 °F 88% 29.88 in 2.0 mi East 5.8 mph - 0.03 in Snow Light Snow
8:13 PM 21.2 °F 12.6 °F 17.6 °F 86% 29.77 in 3.0 mi NE 6.9 mph - 0.00 in Snow Light Snow
8:20 PM 21.2 °F 12.6 °F 17.6 °F 86% 29.77 in 2.5 mi NE 6.9 mph - 0.00 in Snow Light Snow
8:28 PM 21.2 °F 12.6 °F 17.6 °F 86% 29.77 in 3.0 mi NE 6.9 mph - 0.00 in Snow Light Snow
8:39 PM 21.2 °F 11.7 °F 17.6 °F 86% 29.77 in 2.0 mi NE 8.1 mph - 0.00 in Snow Light Snow
8:48 PM 21.2 °F 11.7 °F 17.6 °F 86% 29.77 in 1.8 mi NE 8.1 mph - 0.00 in Snow Light Snow
9:56 PM 19.9 °F 13.4 °F 17.1 °F 89% 29.91 in 1.2 mi ENE 4.6 mph - 0.02 in Snow Light Snow
10:31 PM 19.4 °F 11.5 °F 17.6 °F 93% 29.83 in 2.0 mi NE 5.8 mph - 0.00 in Snow Light Snow
10:56 PM 19.9 °F 13.4 °F 17.1 °F 89% 29.94 in 1.5 mi NNE 4.6 mph - 0.01 in Snow Light Snow
11:24 PM 19.4 °F 14.3 °F 17.6 °F 93% 29.85 in 0.8 mi NE 3.5 mph - 0.00 in Snow Light Snow
11:27 PM 19.4 °F 12.8 °F 17.6 °F 93% 29.85 in 1.0 mi NNE 4.6 mph - 0.01 in Snow Light Snow
11:56 PM 19.9 °F 12.1 °F 16.0 °F 85% 29.94 in 1.5 mi NE 5.8 mph - 0.01 in Snow Light Snow